Tracking 19717 objects as of 24-Jun-2019
HD Live streaming from Space Station
objects crossing your sky now

SL-12 R/B(2)

Track SL-12 R/B(2) now!


NORAD ID: 28119
Int'l Code: 2003-053E
Perigee: 34,906.0 km
Apogee: 36,819.4 km
Inclination: 11.5 °
Period: 1,439.6 minutes
Semi major axis: 42233 km
RCS: 1.9952 m2 (large)
Launch date: November 24, 2003
Source: Commonwealth of Independent States (former USSR) (CIS)
Launch site: TYURATAM MISSILE AND SPACE COMPLEX (TTMTR)

Note: This is a ROCKET BODY
aabbcc
Your satellite tracking list
Your tracking list is empty




NASA's NSSDC Master Catalog

Two Line Element Set (TLE):
1 28119U 03053E   19174.63935983 -.00000132 +00000-0 +00000-0 0  9997
2 28119 011.5478 031.5530 0226531 240.6263 304.1003 01.00026302059209
Source of the keplerian elements: AFSPC